RYR605K EGCC-EBCI

Flight info

Callsign RYR605K
Flight time 0h 58m
Altitude 23000
Route LISTO L612 HON/N0454F290 L15 BIG Q70 VABIK/N0409F230 Q70 KOK
Aircraft B738/M-SDE2E3FGHIRWXY/LB1

Departure

Time 2026-05-06 21:00
Airport Manchester Airport (EGCC)

Arrival

Time 2026-05-06 21:59
Airport Brussels South Charleroi Airport (EBCI)
Time Latitude Longitude Altitude Speed Heading
2026-05-06 20:06 53.36038 -2.26888 247 ft 0 kts 313°
2026-05-06 20:07 53.36036 -2.26885 247 ft 0 kts 313°
2026-05-06 20:45 53.36031 -2.26875 247 ft 4 kts 313°
2026-05-06 20:45 53.36015 -2.26846 247 ft 3 kts 313°
2026-05-06 20:46 53.36004 -2.26813 247 ft 4 kts 259°
2026-05-06 20:46 53.36015 -2.26774 247 ft 4 kts 233°
2026-05-06 20:46 53.36030 -2.26741 247 ft 4 kts 231°
2026-05-06 20:46 53.36047 -2.26706 247 ft 3 kts 231°
2026-05-06 20:47 53.36050 -2.26700 247 ft 0 kts 231°
2026-05-06 20:51 53.36048 -2.26704 247 ft 4 kts 231°
2026-05-06 20:51 53.36013 -2.26776 247 ft 9 kts 231°
2026-05-06 20:51 53.35965 -2.26842 247 ft 9 kts 191°
2026-05-06 20:52 53.35906 -2.26839 252 ft 9 kts 205°
2026-05-06 20:52 53.35864 -2.26915 253 ft 10 kts 232°
2026-05-06 20:52 53.35821 -2.27029 252 ft 14 kts 240°
2026-05-06 20:52 53.35807 -2.27065 251 ft 3 kts 236°
2026-05-06 20:53 53.35786 -2.27115 251 ft 6 kts 234°
2026-05-06 20:53 53.35769 -2.27148 251 ft 5 kts 230°
2026-05-06 20:53 53.35760 -2.27262 247 ft 15 kts 302°
2026-05-06 20:53 53.35755 -2.27392 247 ft 12 kts 233°
2026-05-06 20:54 53.35702 -2.27497 247 ft 12 kts 231°
2026-05-06 20:54 53.35651 -2.27602 246 ft 11 kts 229°
2026-05-06 20:54 53.35596 -2.27695 246 ft 11 kts 224°
2026-05-06 20:54 53.35535 -2.27793 246 ft 14 kts 224°
2026-05-06 20:55 53.35454 -2.27922 244 ft 19 kts 223°
2026-05-06 20:55 53.35352 -2.28086 240 ft 21 kts 224°
2026-05-06 20:55 53.35250 -2.28263 234 ft 22 kts 230°
2026-05-06 20:55 53.35154 -2.28461 230 ft 21 kts 231°
2026-05-06 20:56 53.35061 -2.28652 232 ft 21 kts 230°
2026-05-06 20:56 53.34964 -2.28827 228 ft 20 kts 226°
2026-05-06 20:56 53.34863 -2.29004 219 ft 23 kts 226°
2026-05-06 20:56 53.34758 -2.29211 210 ft 20 kts 232°
2026-05-06 20:57 53.34683 -2.29324 209 ft 7 kts 204°
2026-05-06 20:57 53.34662 -2.29336 212 ft 4 kts 195°
2026-05-06 20:57 53.34603 -2.29337 214 ft 11 kts 166°
2026-05-06 20:57 53.34537 -2.29266 210 ft 11 kts 122°
2026-05-06 20:58 53.34570 -2.29163 216 ft 11 kts 40°
2026-05-06 20:58 53.34589 -2.29125 209 ft 0 kts 51°
2026-05-06 20:59 53.34686 -2.28921 218 ft 56 kts 51°
2026-05-06 21:00 53.35075 -2.28117 237 ft 120 kts 51°
2026-05-06 21:00 53.35696 -2.26817 353 ft 163 kts 51°
2026-05-06 21:00 53.36404 -2.25370 1146 ft 156 kts 51°
2026-05-06 21:00 53.37111 -2.23920 1806 ft 163 kts 54°
2026-05-06 21:01 53.37569 -2.22112 2335 ft 184 kts 83°
2026-05-06 21:01 53.37347 -2.19856 2611 ft 213 kts 118°
2026-05-06 21:01 53.36232 -2.18083 2940 ft 232 kts 148°
2026-05-06 21:01 53.34744 -2.16814 3320 ft 253 kts 166°
2026-05-06 21:02 53.32956 -2.16877 4032 ft 261 kts 186°
2026-05-06 21:02 53.31201 -2.17213 4629 ft 263 kts 185°
2026-05-06 21:02 53.29349 -2.17522 4950 ft 266 kts 185°
2026-05-06 21:02 53.27514 -2.17819 5030 ft 266 kts 185°
2026-05-06 21:03 53.25647 -2.18117 5619 ft 271 kts 185°
2026-05-06 21:03 53.23771 -2.18413 6531 ft 271 kts 185°
2026-05-06 21:03 53.21882 -2.18712 7389 ft 274 kts 185°
2026-05-06 21:03 53.19974 -2.19015 8163 ft 278 kts 185°
2026-05-06 21:04 53.18025 -2.19322 8925 ft 283 kts 185°
2026-05-06 21:04 53.16053 -2.19632 9695 ft 287 kts 186°
2026-05-06 21:04 53.14045 -2.19654 10439 ft 292 kts 167°
2026-05-06 21:04 53.12132 -2.18515 11237 ft 294 kts 158°
2026-05-06 21:05 53.10237 -2.17193 12010 ft 298 kts 158°
2026-05-06 21:05 53.08314 -2.15832 12742 ft 303 kts 158°
2026-05-06 21:05 53.06362 -2.14455 13537 ft 306 kts 158°
2026-05-06 21:05 53.04391 -2.13071 14328 ft 309 kts 158°
2026-05-06 21:06 53.02396 -2.11679 15122 ft 313 kts 158°
2026-05-06 21:06 53.00376 -2.10277 15895 ft 316 kts 158°
2026-05-06 21:06 52.98333 -2.08863 16657 ft 320 kts 158°
2026-05-06 21:06 52.96266 -2.07438 17417 ft 324 kts 158°
2026-05-06 21:07 52.94178 -2.06001 18136 ft 327 kts 158°
2026-05-06 21:07 52.92066 -2.04551 18835 ft 331 kts 158°
2026-05-06 21:07 52.89926 -2.03083 19523 ft 335 kts 158°
2026-05-06 21:07 52.87763 -2.01600 20186 ft 338 kts 158°
2026-05-06 21:08 52.85576 -2.00103 20852 ft 342 kts 158°
2026-05-06 21:08 52.83371 -1.98594 21501 ft 345 kts 159°
2026-05-06 21:08 52.81139 -1.97070 22106 ft 349 kts 159°
2026-05-06 21:08 52.78882 -1.95528 22710 ft 352 kts 159°
2026-05-06 21:09 52.77378 -1.94502 23108 ft 354 kts 159°
2026-05-06 21:09 52.75093 -1.92946 23687 ft 358 kts 159°
2026-05-06 21:09 52.72778 -1.91373 24251 ft 361 kts 159°
2026-05-06 21:09 52.70446 -1.89791 24798 ft 364 kts 159°
2026-05-06 21:10 52.68092 -1.88194 25331 ft 367 kts 159°
2026-05-06 21:10 52.66160 -1.86885 25769 ft 369 kts 159°
2026-05-06 21:10 52.64452 -1.85730 26147 ft 371 kts 159°
2026-05-06 21:10 52.62056 -1.84107 26693 ft 373 kts 159°
2026-05-06 21:11 52.59656 -1.82483 27311 ft 371 kts 159°
2026-05-06 21:11 52.57272 -1.80873 27946 ft 369 kts 159°
2026-05-06 21:11 52.54895 -1.79269 28549 ft 367 kts 159°
2026-05-06 21:11 52.52533 -1.77678 29010 ft 369 kts 159°
2026-05-06 21:12 52.50167 -1.76087 29013 ft 365 kts 159°
2026-05-06 21:12 52.45512 -1.72961 29063 ft 369 kts 159°
2026-05-06 21:13 52.40792 -1.69798 29051 ft 369 kts 159°
2026-05-06 21:13 52.36117 -1.66323 29041 ft 371 kts 148°
2026-05-06 21:13 52.34067 -1.63771 29047 ft 372 kts 137°
2026-05-06 21:14 52.32246 -1.60744 29063 ft 372 kts 134°
2026-05-06 21:14 52.28701 -1.54578 29048 ft 372 kts 134°
2026-05-06 21:15 52.25146 -1.48435 29046 ft 372 kts 135°
2026-05-06 21:15 52.21596 -1.42373 29043 ft 371 kts 135°
2026-05-06 21:16 52.18022 -1.36305 29048 ft 371 kts 135°
2026-05-06 21:16 52.14447 -1.30255 29048 ft 371 kts 135°
2026-05-06 21:17 52.10863 -1.24204 29044 ft 371 kts 135°
2026-05-06 21:17 52.07278 -1.18160 29049 ft 371 kts 135°
2026-05-06 21:18 52.03673 -1.12106 29056 ft 385 kts 135°
2026-05-06 21:18 52.01775 -1.08928 29046 ft 398 kts 135°
2026-05-06 21:18 51.99822 -1.05671 29044 ft 410 kts 135°
2026-05-06 21:19 51.95748 -0.98875 29044 ft 431 kts 135°
2026-05-06 21:19 51.91475 -0.91753 29031 ft 449 kts 135°
2026-05-06 21:20 51.87042 -0.84386 29028 ft 465 kts 135°
2026-05-06 21:20 51.82465 -0.76795 29019 ft 478 kts 135°
2026-05-06 21:21 51.77764 -0.69036 29013 ft 486 kts 135°
2026-05-06 21:21 51.73009 -0.61222 29010 ft 489 kts 135°
2026-05-06 21:22 51.68245 -0.53416 29026 ft 487 kts 135°
2026-05-06 21:22 51.63512 -0.45679 29025 ft 487 kts 135°
2026-05-06 21:23 51.58750 -0.37921 29029 ft 486 kts 135°
2026-05-06 21:23 51.53985 -0.30184 29026 ft 487 kts 135°
2026-05-06 21:24 51.49209 -0.22451 29031 ft 487 kts 135°
2026-05-06 21:24 51.44453 -0.14772 29032 ft 487 kts 135°
2026-05-06 21:25 51.39670 -0.07072 29035 ft 487 kts 135°
2026-05-06 21:25 51.35173 0.00690 29018 ft 488 kts 124°
2026-05-06 21:25 51.33604 0.05416 29034 ft 488 kts 112°
2026-05-06 21:26 51.32654 0.10627 29018 ft 488 kts 100°
2026-05-06 21:26 51.32158 0.21437 29030 ft 488 kts 93°
2026-05-06 21:27 51.31741 0.32134 29027 ft 488 kts 94°
2026-05-06 21:27 51.31233 0.42962 29019 ft 488 kts 95°
2026-05-06 21:28 51.30696 0.53793 29023 ft 488 kts 95°
2026-05-06 21:28 51.30185 0.64599 29016 ft 488 kts 94°
2026-05-06 21:29 51.29811 0.75433 29026 ft 487 kts 93°
2026-05-06 21:29 51.29439 0.86265 29021 ft 487 kts 93°
2026-05-06 21:30 51.29038 0.97003 29014 ft 487 kts 94°
2026-05-06 21:30 51.28620 1.07819 29019 ft 487 kts 94°
2026-05-06 21:31 51.28190 1.18629 29022 ft 487 kts 94°
2026-05-06 21:31 51.27752 1.29417 29016 ft 487 kts 94°
2026-05-06 21:32 51.27306 1.40206 29020 ft 487 kts 94°
2026-05-06 21:32 51.26617 1.56404 29020 ft 487 kts 94°
2026-05-06 21:33 51.26142 1.67199 29018 ft 487 kts 94°
2026-05-06 21:33 51.25660 1.77992 29019 ft 487 kts 94°
2026-05-06 21:34 51.25169 1.88772 29018 ft 487 kts 94°
2026-05-06 21:34 51.24673 1.99558 29019 ft 487 kts 94°
2026-05-06 21:35 51.24161 2.10281 29020 ft 487 kts 94°
2026-05-06 21:35 51.23640 2.21066 29013 ft 487 kts 94°
2026-05-06 21:36 51.23110 2.31858 29009 ft 486 kts 95°
2026-05-06 21:36 51.22541 2.37166 29000 ft 487 kts 106°
2026-05-06 21:36 51.21323 2.42134 29012 ft 474 kts 117°
2026-05-06 21:37 51.19644 2.46566 28994 ft 461 kts 127°
2026-05-06 21:37 51.17570 2.50420 29008 ft 456 kts 133°
2026-05-06 21:37 51.13326 2.58023 28202 ft 463 kts 131°
2026-05-06 21:38 51.11259 2.61855 27420 ft 461 kts 129°
2026-05-06 21:38 51.09419 2.66008 26831 ft 455 kts 121°
2026-05-06 21:38 51.08031 2.70491 26234 ft 450 kts 111°
2026-05-06 21:38 51.06912 2.75122 25648 ft 445 kts 111°
2026-05-06 21:39 51.05807 2.79687 25042 ft 440 kts 111°
2026-05-06 21:39 51.04704 2.84200 24445 ft 436 kts 112°
2026-05-06 21:39 51.03600 2.88671 23841 ft 432 kts 112°
2026-05-06 21:39 51.02501 2.93087 23245 ft 428 kts 112°
2026-05-06 21:40 51.01404 2.97468 22658 ft 424 kts 112°
2026-05-06 21:40 51.00316 3.01793 22066 ft 420 kts 112°
2026-05-06 21:40 50.99233 3.06087 21473 ft 417 kts 112°
2026-05-06 21:40 50.98159 3.10339 20892 ft 413 kts 112°
2026-05-06 21:41 50.97091 3.14560 20308 ft 410 kts 112°
2026-05-06 21:41 50.96032 3.18738 19727 ft 407 kts 112°
2026-05-06 21:41 50.94977 3.22890 19153 ft 403 kts 112°
2026-05-06 21:41 50.93932 3.26995 18584 ft 400 kts 112°
2026-05-06 21:42 50.92891 3.31078 18012 ft 397 kts 112°
2026-05-06 21:42 50.91872 3.35068 17457 ft 394 kts 112°
2026-05-06 21:42 50.90846 3.39080 16896 ft 391 kts 112°
2026-05-06 21:42 50.89827 3.43055 16342 ft 388 kts 112°
2026-05-06 21:43 50.88813 3.47002 15784 ft 386 kts 112°
2026-05-06 21:43 50.87806 3.50918 15234 ft 383 kts 112°
2026-05-06 21:43 50.86804 3.54809 14687 ft 380 kts 112°
2026-05-06 21:43 50.85809 3.58666 14137 ft 377 kts 112°
2026-05-06 21:44 50.84819 3.62499 13599 ft 374 kts 112°
2026-05-06 21:44 50.83836 3.66293 13061 ft 372 kts 112°
2026-05-06 21:44 50.82857 3.70071 12517 ft 369 kts 112°
2026-05-06 21:44 50.81885 3.73815 11973 ft 367 kts 112°
2026-05-06 21:45 50.80916 3.77536 11439 ft 364 kts 112°
2026-05-06 21:45 50.79954 3.81226 10951 ft 361 kts 112°
2026-05-06 21:45 50.79015 3.84819 10807 ft 347 kts 112°
2026-05-06 21:45 50.78109 3.88285 10636 ft 336 kts 112°
2026-05-06 21:46 50.77230 3.91641 10490 ft 324 kts 112°
2026-05-06 21:46 50.76389 3.94832 10350 ft 314 kts 112°
2026-05-06 21:46 50.75554 3.98015 10216 ft 305 kts 112°
2026-05-06 21:46 50.74754 4.01060 10091 ft 296 kts 112°
2026-05-06 21:47 50.73987 4.03978 9966 ft 288 kts 112°
2026-05-06 21:47 50.73223 4.06882 9690 ft 286 kts 112°
2026-05-06 21:47 50.72461 4.09768 9416 ft 283 kts 112°
2026-05-06 21:47 50.71704 4.12634 9134 ft 282 kts 112°
2026-05-06 21:48 50.70951 4.15477 8853 ft 280 kts 112°
2026-05-06 21:48 50.70202 4.18305 8556 ft 278 kts 111°
2026-05-06 21:48 50.69459 4.21112 8281 ft 277 kts 111°
2026-05-06 21:48 50.68716 4.23913 7993 ft 275 kts 112°
2026-05-06 21:49 50.67980 4.26685 7717 ft 274 kts 112°
2026-05-06 21:49 50.67238 4.29455 7452 ft 274 kts 112°
2026-05-06 21:49 50.66505 4.32200 7174 ft 273 kts 111°
2026-05-06 21:49 50.65767 4.34963 6898 ft 274 kts 111°
2026-05-06 21:50 50.65026 4.37752 6626 ft 274 kts 111°
2026-05-06 21:50 50.64306 4.40451 6608 ft 260 kts 111°
2026-05-06 21:50 50.63624 4.43013 6505 ft 246 kts 111°
2026-05-06 21:50 50.62971 4.45428 6351 ft 233 kts 111°
2026-05-06 21:51 50.62369 4.47675 6263 ft 219 kts 111°
2026-05-06 21:51 50.61794 4.49825 6189 ft 207 kts 111°
2026-05-06 21:51 50.61228 4.51850 6011 ft 198 kts 111°
2026-05-06 21:51 50.60694 4.53833 5769 ft 195 kts 110°
2026-05-06 21:52 50.60169 4.55794 5542 ft 196 kts 112°
2026-05-06 21:52 50.59624 4.57748 5331 ft 194 kts 111°
2026-05-06 21:52 50.59111 4.59737 5039 ft 198 kts 111°
2026-05-06 21:52 50.58581 4.61726 4864 ft 195 kts 111°
2026-05-06 21:53 50.58073 4.63689 4674 ft 191 kts 110°
2026-05-06 21:53 50.57568 4.65580 4513 ft 185 kts 111°
2026-05-06 21:53 50.57064 4.67427 4337 ft 184 kts 111°
2026-05-06 21:53 50.56533 4.69281 4110 ft 185 kts 113°
2026-05-06 21:54 50.55795 4.70904 3906 ft 185 kts 142°
2026-05-06 21:54 50.54588 4.71408 3812 ft 184 kts 185°
2026-05-06 21:54 50.53786 4.71008 3611 ft 183 kts 217°
2026-05-06 21:54 50.52956 4.69571 3456 ft 179 kts 242°
2026-05-06 21:55 50.52413 4.67848 3363 ft 173 kts 247°
2026-05-06 21:55 50.51930 4.66167 3166 ft 161 kts 247°
2026-05-06 21:55 50.51500 4.64603 2933 ft 151 kts 249°
2026-05-06 21:55 50.51083 4.63110 2747 ft 147 kts 249°
2026-05-06 21:56 50.50672 4.61616 2614 ft 148 kts 249°
2026-05-06 21:56 50.50283 4.60143 2417 ft 143 kts 249°
2026-05-06 21:56 50.49850 4.58736 2159 ft 144 kts 246°
2026-05-06 21:56 50.49456 4.57302 1976 ft 141 kts 248°
2026-05-06 21:57 50.49064 4.55882 1786 ft 142 kts 246°
2026-05-06 21:57 50.48636 4.54479 1603 ft 140 kts 246°
2026-05-06 21:57 50.48242 4.53093 1417 ft 142 kts 248°
2026-05-06 21:57 50.47841 4.51680 1245 ft 139 kts 246°
2026-05-06 21:58 50.47439 4.50289 1093 ft 141 kts 246°
2026-05-06 21:58 50.47033 4.48883 883 ft 140 kts 246°
2026-05-06 21:58 50.46627 4.47508 675 ft 136 kts 246°
2026-05-06 21:58 50.46253 4.46201 589 ft 123 kts 245°
2026-05-06 21:59 50.45981 4.45277 589 ft 63 kts 246°
2026-05-06 21:59 50.45858 4.44851 596 ft 30 kts 248°
2026-05-06 21:59 50.45801 4.44655 598 ft 10 kts 237°
2026-05-06 21:59 50.45743 4.44623 597 ft 9 kts 169°
2026-05-06 22:00 50.45696 4.44683 596 ft 10 kts 90°
2026-05-06 22:00 50.45720 4.44781 596 ft 10 kts 64°
2026-05-06 22:00 50.45752 4.44896 596 ft 15 kts 66°
2026-05-06 22:00 50.45809 4.45086 593 ft 24 kts 66°
2026-05-06 22:01 50.45881 4.45335 592 ft 26 kts 65°
2026-05-06 22:01 50.45953 4.45585 592 ft 24 kts 65°
2026-05-06 22:01 50.46021 4.45817 593 ft 23 kts 65°
2026-05-06 22:01 50.46060 4.46054 595 ft 22 kts 73°
2026-05-06 22:02 50.46117 4.46236 594 ft 14 kts 39°
2026-05-06 22:02 50.46154 4.46245 593 ft 0 kts 341°
2026-05-06 22:07 50.46159 4.46242 593 ft 6 kts 340°
2026-05-06 22:07 50.46233 4.46190 590 ft 15 kts 335°
2026-05-06 22:07 50.46331 4.46115 590 ft 16 kts 334°
2026-05-06 22:07 50.46418 4.46152 590 ft 15 kts 63°
2026-05-06 22:08 50.46460 4.46298 589 ft 14 kts 66°
2026-05-06 22:08 50.46502 4.46439 588 ft 14 kts 65°
2026-05-06 22:08 50.46541 4.46574 590 ft 13 kts 65°
2026-05-06 22:08 50.46579 4.46704 590 ft 13 kts 65°
2026-05-06 22:09 50.46631 4.46799 590 ft 11 kts
2026-05-06 22:09 50.46703 4.46808 588 ft 12 kts 46°
2026-05-06 22:09 50.46736 4.46911 587 ft 8 kts 66°
2026-05-06 22:09 50.46749 4.46955 586 ft 0 kts 66°
2026-05-06 22:10 50.46752 4.46969 586 ft 4 kts 66°
2026-05-06 22:10 50.46778 4.47030 585 ft 8 kts 34°
2026-05-06 22:10 50.46815 4.47004 584 ft 4 kts 330°
2026-05-06 22:10 50.46833 4.46991 584 ft 1 kts 335°
2026-05-06 22:11 50.46838 4.46988 584 ft 1 kts 335°
2026-05-06 22:11 50.46841 4.46985 584 ft 0 kts 335°
2026-05-06 22:12 50.52295 4.67436 3259 ft 164 kts 248°
2026-05-06 22:13 50.46416 4.46772 603 ft 132 kts 246°
2026-05-06 22:13 50.46171 4.45930 591 ft 61 kts 245°
2026-05-06 22:13 50.46395 4.46701 600 ft 131 kts 246°
2026-05-06 22:14 50.46300 4.46373 590 ft 104 kts 246°
2026-05-06 22:14 50.46379 4.46645 598 ft 131 kts 246°
2026-05-06 22:14 50.46055 4.45533 592 ft 84 kts 245°
2026-05-06 22:14 50.46532 4.47176 637 ft 135 kts 246°
2026-05-06 22:15 50.46168 4.45919 591 ft 108 kts 245°
2026-05-06 22:15 50.46040 4.45899 594 ft 22 kts 75°
2026-05-06 22:15 50.46077 4.46127 594 ft 21 kts 69°
2026-05-06 22:15 50.46116 4.46234 594 ft 14 kts 41°
2026-05-06 22:16 50.46154 4.46245 593 ft 0 kts 341°
2026-05-06 22:16 50.47466 4.50380 1101 ft 141 kts 246°
2026-05-06 22:16 50.48562 4.54230 1576 ft 140 kts 246°
2026-05-06 22:16 50.48173 4.52842 1372 ft 142 kts 248°
2026-05-06 22:17 50.47764 4.51413 1223 ft 139 kts 246°
2026-05-06 22:17 50.47361 4.50020 1060 ft 141 kts 246°
2026-05-06 22:17 50.46954 4.48615 837 ft 140 kts 245°
2026-05-06 22:17 50.46557 4.47265 646 ft 135 kts 247°
2026-05-06 22:18 50.46190 4.45991 591 ft 113 kts 244°
2026-05-06 22:18 50.45951 4.45174 590 ft 51 kts 245°
2026-05-06 22:18 50.45846 4.44805 597 ft 22 kts 245°
2026-05-06 22:18 50.45793 4.44640 598 ft 9 kts 227°
2026-05-06 22:19 50.46658 4.47619 691 ft 136 kts 246°
2026-05-06 22:19 50.46280 4.46299 589 ft 125 kts 246°
2026-05-06 22:19 50.45995 4.45328 590 ft 68 kts 245°
2026-05-06 22:19 50.45865 4.44875 595 ft 33 kts 245°
2026-05-06 22:20 50.46154 4.46245 593 ft 0 kts 341°
2026-05-06 22:22 50.52260 4.67313 3236 ft 172 kts 248°
2026-05-06 22:22 50.51789 4.65672 3085 ft 158 kts 248°
2026-05-06 22:23 50.45936 4.45120 591 ft 45 kts 245°
2026-05-06 22:23 50.46154 4.46245 593 ft 0 kts 341°
2026-05-06 22:23 50.46163 4.46240 593 ft 3 kts 341°
2026-05-06 22:24 50.52295 4.67436 592 ft 164 kts 248°
2026-05-06 22:24 50.51219 4.63598 2791 ft 148 kts 248°
2026-05-06 22:24 50.50808 4.62113 2671 ft 150 kts 249°
2026-05-06 22:24 50.50415 4.60638 2455 ft 146 kts 249°
2026-05-06 22:25 50.50008 4.59207 2277 ft 143 kts 242°
2026-05-06 22:25 50.49587 4.57785 2030 ft 142 kts 248°
2026-05-06 22:25 50.49202 4.56362 1860 ft 141 kts 247°
2026-05-06 22:25 50.48779 4.54956 1654 ft 142 kts 245°
2026-05-06 22:26 50.48370 4.53559 1481 ft 141 kts 247°
2026-05-06 22:26 50.47973 4.52136 1272 ft 142 kts 246°
2026-05-06 22:26 50.47571 4.50744 1151 ft 141 kts 246°
2026-05-06 22:26 50.47165 4.49341 953 ft 142 kts 246°
2026-05-06 22:27 50.46756 4.47955 741 ft 137 kts 246°
2026-05-06 22:27 50.46374 4.46627 597 ft 130 kts 246°
2026-05-06 22:27 50.46052 4.45521 592 ft 83 kts 245°
2026-05-06 22:27 50.45891 4.44967 593 ft 37 kts 246°
2026-05-06 22:28 50.45816 4.44701 599 ft 21 kts 245°
2026-05-06 22:28 50.45765 4.44620 598 ft 9 kts 186°
2026-05-06 22:28 50.45703 4.44652 596 ft 9 kts 141°
2026-05-06 22:28 50.47359 4.50014 1059 ft 156 kts 246°
2026-05-06 22:29 50.47331 4.49917 1045 ft 141 kts 246°
2026-05-06 22:29 50.46924 4.48519 817 ft 140 kts 245°
2026-05-06 22:29 50.49124 4.56084 1817 ft 142 kts 246°
2026-05-06 22:29 50.48725 4.54775 1630 ft 142 kts 245°
2026-05-06 22:30 50.48319 4.53373 1456 ft 142 kts 247°
2026-05-06 22:30 50.47921 4.51954 1252 ft 141 kts 246°
2026-05-06 22:30 50.47621 4.50919 1173 ft 140 kts 246°
2026-05-06 22:30 50.47215 4.49515 989 ft 141 kts 246°
2026-05-06 22:31 50.46805 4.48121 763 ft 138 kts 246°
2026-05-06 22:31 50.46438 4.46849 615 ft 133 kts 246°
2026-05-06 22:31 50.46140 4.45821 594 ft 96 kts 244°
2026-05-06 22:32 50.46154 4.46245 593 ft 0 kts 341°
2026-05-06 22:32 50.52295 4.67436 3259 ft 169 kts 248°
2026-05-06 22:32 50.47716 4.51249 1212 ft 164 kts 246°
2026-05-06 22:33 50.47445 4.50310 1094 ft 141 kts 246°
2026-05-06 22:33 50.47040 4.48905 887 ft 141 kts 246°
2026-05-06 22:34 50.46632 4.47529 676 ft 136 kts 246°
2026-05-06 22:34 50.46258 4.46222 589 ft 123 kts 246°
2026-05-06 22:34 50.45983 4.45286 589 ft 63 kts 246°
2026-05-06 22:34 50.45860 4.44860 595 ft 31 kts 246°
2026-05-06 22:35 50.45802 4.44657 598 ft 9 kts 238°
2026-05-06 22:35 50.47934 4.52001 1265 ft 141 kts 246°
2026-05-06 22:35 50.47534 4.50613 1136 ft 141 kts 246°
2026-05-06 22:35 50.47128 4.49210 933 ft 142 kts 246°
2026-05-06 22:36 50.46719 4.47827 724 ft 137 kts 246°
2026-05-06 22:36 50.46335 4.46493 594 ft 128 kts 246°
2026-05-06 22:36 50.46028 4.45439 592 ft 77 kts 245°
2026-05-06 22:36 50.45931 4.45106 591 ft 42 kts 245°
2026-05-06 22:37 50.52055 4.66609 3166 ft 167 kts 248°
2026-05-06 22:37 50.46510 4.47098 637 ft 134 kts 247°
2026-05-06 22:37 50.46406 4.46738 602 ft 124 kts 246°
2026-05-06 22:37 50.46728 4.47857 729 ft 137 kts 246°
2026-05-06 22:38 50.46527 4.47159 636 ft 134 kts 246°
2026-05-06 22:38 50.46164 4.45906 592 ft 108 kts 246°
2026-05-06 22:38 50.45940 4.45135 590 ft 47 kts 245°
2026-05-06 22:38 50.45849 4.44815 597 ft 22 kts 248°
2026-05-06 22:39 50.46035 4.45465 592 ft 78 kts 245°
2026-05-06 22:39 50.46763 4.47979 744 ft 135 kts 246°
2026-05-06 22:39 50.46662 4.47632 689 ft 137 kts 246°
2026-05-06 22:39 50.46373 4.46624 597 ft 126 kts 246°
2026-05-06 22:40 50.46474 4.46974 617 ft 132 kts 246°
2026-05-06 22:40 50.46528 4.47163 636 ft 134 kts 246°
2026-05-06 22:40 50.46165 4.45907 592 ft 108 kts 246°
2026-05-06 22:40 50.45941 4.45137 590 ft 47 kts 245°
2026-05-06 22:41 50.47823 4.51618 1232 ft 138 kts 246°
2026-05-06 22:41 50.47718 4.51256 1212 ft 139 kts 246°
2026-05-06 22:41 50.47314 4.49859 1037 ft 141 kts 246°
2026-05-06 22:42 50.46907 4.48461 810 ft 140 kts 245°
2026-05-06 22:42 50.46509 4.47097 634 ft 134 kts 247°
2026-05-06 22:42 50.46150 4.45854 593 ft 105 kts 246°
2026-05-06 22:42 50.45934 4.45114 591 ft 44 kts 245°
2026-05-06 22:43 50.45839 4.44781 598 ft 21 kts 244°
2026-05-06 22:43 50.46713 4.47808 720 ft 137 kts 246°
2026-05-06 22:43 50.47559 4.50703 1146 ft 142 kts 246°
2026-05-06 22:43 50.47189 4.49423 962 ft 142 kts 246°
2026-05-06 22:44 50.46779 4.48032 749 ft 138 kts 246°
2026-05-06 22:44 50.48783 4.54967 1664 ft 142 kts 245°
2026-05-06 22:44 50.48413 4.53715 1510 ft 141 kts 247°
2026-05-06 22:44 50.48019 4.52296 1292 ft 142 kts 246°
2026-05-06 22:45 50.47697 4.51181 1206 ft 140 kts 246°
2026-05-06 22:45 50.47520 4.50567 1130 ft 141 kts 246°
2026-05-06 22:45 50.47116 4.49160 960 ft 138 kts 248°
2026-05-06 22:45 50.47249 4.49631 935 ft 141 kts 246°
2026-05-06 22:46 50.47489 4.50459 1111 ft 141 kts 246°
2026-05-06 22:46 50.47089 4.49075 913 ft 141 kts 246°
2026-05-06 22:46 50.46680 4.47694 696 ft 137 kts 246°
2026-05-06 22:46 50.46300 4.46370 590 ft 126 kts 246°
2026-05-06 22:47 50.47646 4.51003 1070 ft 141 kts 246°
2026-05-06 22:47 50.47262 4.49677 1009 ft 141 kts 246°
2026-05-06 22:47 50.46169 4.46237 593 ft 6 kts 340°
2026-05-06 22:47 50.50835 4.62212 2683 ft 150 kts 248°
2026-05-06 22:48 50.49130 4.56107 1821 ft 141 kts 246°
2026-05-06 22:48 50.48703 4.54703 1624 ft 141 kts 245°
2026-05-06 22:48 50.48298 4.53300 1447 ft 142 kts 247°
2026-05-06 22:48 50.47899 4.51879 1252 ft 140 kts 246°
2026-05-06 22:49 50.47499 4.50492 1112 ft 141 kts 246°
2026-05-06 22:49 50.47093 4.49089 917 ft 141 kts 246°
2026-05-06 22:49 50.46685 4.47709 696 ft 137 kts 246°
2026-05-06 22:49 50.46303 4.46382 591 ft 126 kts 246°
2026-05-06 22:50 50.46011 4.45382 591 ft 72 kts 245°
2026-05-06 22:50 50.45872 4.44902 594 ft 35 kts 246°
2026-05-06 22:50 50.47517 4.50557 1138 ft 140 kts 246°
2026-05-06 22:50 50.46418 4.46779 603 ft 123 kts 246°
2026-05-06 22:51 50.46494 4.47043 636 ft 133 kts 247°
2026-05-06 22:51 50.46470 4.46961 623 ft 134 kts 246°
2026-05-06 22:51 50.46118 4.45748 595 ft 98 kts 245°
2026-05-06 22:51 50.45922 4.45076 592 ft 43 kts 245°
2026-05-06 22:52 50.45989 4.45307 589 ft 66 kts 245°
2026-05-06 22:52 50.45862 4.44866 595 ft 32 kts 245°
2026-05-06 22:52 50.46000 4.45345 590 ft 69 kts 245°
2026-05-06 22:52 50.45867 4.44883 594 ft 34 kts 245°
2026-05-06 22:53 50.45835 4.44768 598 ft 0 kts 245°
2026-05-06 22:53 50.45816 4.44702 599 ft 21 kts 245°
2026-05-06 22:53 50.45765 4.44620 598 ft 9 kts 186°
2026-05-06 22:53 50.45806 4.44670 598 ft 12 kts 244°
2026-05-06 22:54 50.45753 4.44621 597 ft 9 kts 178°
2026-05-06 22:54 50.45697 4.44668 596 ft 9 kts 112°
2026-05-06 22:54 50.45715 4.44767 596 ft 9 kts 64°
2026-05-06 22:54 50.45720 4.44781 596 ft 7 kts 64°